This is the latest recevied weather packets stored in our database for station/object SP3OTE-2. If no packets are shown the sender has not sent any weather packets the latest 10 day(s).
| Time | Temp. | Humidity | Pressure | Rain* | Wind** | Luminosity | Snow |
|---|---|---|---|---|---|---|---|
| 1778005119 | 23.33° C | 51% | 1005.5 hPa | - | - | - | - |
| 1778004519 | 23.89° C | 50% | 1005.3 hPa | - | - | - | - |
| 1778003919 | 24.44° C | 45% | 1005.2 hPa | - | - | - | - |
| 1778003318 | 25° C | 42% | 1005.2 hPa | - | - | - | - |
| 1778002718 | 25.56° C | 39% | 1005.1 hPa | - | - | - | - |
| 1778002118 | 26.67° C | 36% | 1005 hPa | - | - | - | - |
| 1778001518 | 27.78° C | 33% | 1004.9 hPa | - | - | - | - |
| 1778000916 | 29.44° C | 28% | 1004.7 hPa | - | - | - | - |
| 1778000316 | 31.67° C | 26% | 1004.7 hPa | - | - | - | - |
| 1777999716 | 32.78° C | 25% | 1004.8 hPa | - | - | - | - |
| 1777999115 | 33.33° C | 24% | 1004.9 hPa | - | - | - | - |
| 1777998515 | 35° C | 23% | 1004.9 hPa | - | - | - | - |
| 1777997915 | 35° C | 23% | 1004.9 hPa | - | - | - | - |
| 1777997315 | 34.44° C | 24% | 1005 hPa | - | - | - | - |
| 1777996715 | 32.22° C | 24% | 1005 hPa | - | - | - | - |
| 1777996114 | 35° C | 24% | 1005.1 hPa | - | - | - | - |
| 1777995514 | 33.89° C | 26% | 1005.1 hPa | - | - | - | - |
| 1777994313 | 31.67° C | 27% | 1005.2 hPa | - | - | - | - |
| 1777993713 | 31.67° C | 27% | 1005.2 hPa | - | - | - | - |
| 1777993113 | 33.33° C | 25% | 1005.2 hPa | - | - | - | - |
| 1777992512 | 33.89° C | 25% | 1005.2 hPa | - | - | - | - |
| 1777991912 | 33.89° C | 24% | 1005.2 hPa | - | - | - | - |
| 1777991312 | 34.44° C | 25% | 1005.2 hPa | - | - | - | - |
| 1777990712 | 33.33° C | 25% | 1005.4 hPa | - | - | - | - |
| 1777989511 | 32.78° C | 25% | 1005.5 hPa | - | - | - | - |
* Rain since midnight (hover to see other rain measurements)
** Current wind speed in m/s (hover to see current wind gust speed)